Retour au catalogue

CZ-2C DEB

ActifSSO
NORAD 39205·DEBRIS·🇨🇳 China

Lancé Jul 15, 2013 depuis Jiuquan Satellite Launch Center

Loading…

Prochains Passages (prochaines 24 heures)

TLE

FraisSource: Space-Track

Époque: Sep 14, 2026, 05:14 UTC

1 39205U 13035D   26257.21836425  .00006827  00000-0  64904-3 0  9993
2 39205  97.8167 255.6935 0047321 221.9574 137.8016 14.92938451701562

Suivez CZ-2C DEB en temps réel avec AllMySat

Download on the App Store